{"data":{"norad_id":60393,"epoch":"2026-05-25T03:13:11.378208Z","epoch_age_seconds":66654,"freshness":"FRESH","line1":"1 60393U 24140Q   26145.13415947  .00000073  00000+0  94165-4 0  9992","line2":"2 60393  88.9712 282.3075 0014371  85.7887 274.4906 13.51011158 89324","mean_motion":13.51011158,"eccentricity":0.0014371,"inclination_deg":88.9712,"raan_deg":282.3075,"arg_perigee_deg":85.7887,"mean_anomaly_deg":274.4906,"bstar":9.4165e-5,"rev_number":8932,"period_min":106.5868324975,"perigee_km":1057.8389632051,"apogee_km":1079.2422039158,"semimajor_km":7446.6775835604,"source":"CELESTRAK","updated_at":"2026-05-25T13:38:02.043358Z"}}